• In Deutschland
  • Länderverzeichnis
  • Für 7 Tage
  • Wassertemperatur
  • Satellitenkarten
  • Wetterkarte
  • Widgets
  • user-avatar
    Anmelden

    Stündliche Wetter Dzhimma

    Heute, 24 Oktober, Mittwoch

    Zeit Temperatur Niederschläge Wind Luftdruck Luftfeuchtigkeit
    00:00 +15°C° 0 mm 1 m/S 620 mmHg 86%
    01:00 +14°C° 0 mm 0 m/S 620 mmHg 88%
    02:00 +13°C° 0 mm 0 m/S 619 mmHg 90%
    03:00 +13°C° 0 mm 0 m/S 619 mmHg 91%
    04:00 +13°C° 0 mm 0 m/S 619 mmHg 92%
    05:00 +12°C° 0 mm 0 m/S 619 mmHg 93%
    06:00 +16°C° 0 mm 1 m/S 620 mmHg 82%
    07:00 +20°C° 0 mm 1 m/S 621 mmHg 72%
    08:00 +23°C° 0 mm 1 m/S 622 mmHg 61%
    09:00 +25°C° 0 mm 1 m/S 623 mmHg 54%
    10:00 +27°C° 0 mm 1 m/S 623 mmHg 47%
    11:00 +29°C° 0 mm 1 m/S 623 mmHg 40%
    12:00 +29°C° 0 mm 1 m/S 622 mmHg 41%
    13:00 +28°C° 0 mm 1 m/S 621 mmHg 41%
    14:00 +28°C° 0 mm 1 m/S 621 mmHg 41%
    15:00 +26°C° 0 mm 1 m/S 620 mmHg 49%
    16:00 +24°C° 0 mm 1 m/S 619 mmHg 57%
    17:00 +20°C° 0 mm 0 m/S 619 mmHg 64%
    18:00 +19°C° 0.4 mm 0 m/S 619 mmHg 70%
    19:00 +19°C° 0.4 mm 1 m/S 619 mmHg 75%
    20:00 +18°C° 0.4 mm 1 m/S 620 mmHg 81%
    21:00 +16°C° 0.2 mm 0 m/S 620 mmHg 82%
    22:00 +16°C° 0.2 mm 0 m/S 620 mmHg 83%
    23:00 +16°C° 0.2 mm 0 m/S 620 mmHg 84%

    Morgen, 25 Oktober, Donnerstag

    Zeit Temperatur Niederschläge Wind Luftdruck Luftfeuchtigkeit
    00:00 +16°C° 0.3 mm 0 m/S 620 mmHg 85%
    01:00 +15°C° 0.3 mm 0 m/S 620 mmHg 87%
    02:00 +15°C° 0.3 mm 0 m/S 619 mmHg 89%
    03:00 +15°C° 0.5 mm 0 m/S 619 mmHg 90%
    04:00 +15°C° 0.5 mm 0 m/S 619 mmHg 92%
    05:00 +14°C° 0.5 mm 0 m/S 619 mmHg 93%
    06:00 +16°C° 0.1 mm 0 m/S 620 mmHg 88%
    07:00 +18°C° 0.1 mm 0 m/S 621 mmHg 82%
    08:00 +19°C° 0.1 mm 0 m/S 622 mmHg 77%
    09:00 +23°C° 0.1 mm 1 m/S 622 mmHg 69%
    10:00 +25°C° 0.1 mm 1 m/S 622 mmHg 60%
    11:00 +27°C° 0.1 mm 1 m/S 622 mmHg 52%
    12:00 +27°C° 0.5 mm 1 m/S 621 mmHg 54%
    13:00 +27°C° 0.5 mm 1 m/S 620 mmHg 55%
    14:00 +26°C° 0.5 mm 1 m/S 619 mmHg 57%
    15:00 +25°C° 0.4 mm 1 m/S 619 mmHg 62%
    16:00 +21°C° 0.4 mm 0 m/S 619 mmHg 68%
    17:00 +19°C° 0.4 mm 0 m/S 618 mmHg 73%
    18:00 +18°C° 0.4 mm 0 m/S 619 mmHg 77%
    19:00 +17°C° 0.4 mm 0 m/S 619 mmHg 80%
    20:00 +18°C° 0.4 mm 1 m/S 619 mmHg 84%
    21:00 +18°C° 0.4 mm 1 m/S 619 mmHg 85%
    22:00 +16°C° 0.4 mm 1 m/S 619 mmHg 87%
    23:00 +16°C° 0.4 mm 1 m/S 619 mmHg 88%

    übermorgen, 26 Oktober, Freitag

    Zeit Temperatur Niederschläge Wind Luftdruck Luftfeuchtigkeit
    00:00 +15°C° 0.1 mm 1 m/S 619 mmHg 89%
    01:00 +14°C° 0.1 mm 0 m/S 618 mmHg 90%
    02:00 +14°C° 0.1 mm 0 m/S 618 mmHg 91%
    03:00 +13°C° 0 mm 0 m/S 618 mmHg 91%
    04:00 +13°C° 0 mm 0 m/S 618 mmHg 91%
    05:00 +13°C° 0 mm 0 m/S 619 mmHg 91%
    06:00 +18°C° 0 mm 1 m/S 620 mmHg 82%
    07:00 +20°C° 0 mm 1 m/S 621 mmHg 73%
    08:00 +23°C° 0 mm 1 m/S 622 mmHg 64%
    09:00 +25°C° 0.1 mm 1 m/S 623 mmHg 58%
    10:00 +27°C° 0.1 mm 1 m/S 623 mmHg 51%
    11:00 +29°C° 0.1 mm 1 m/S 623 mmHg 45%
    12:00 +29°C° 0.2 mm 1 m/S 622 mmHg 47%
    13:00 +28°C° 0.2 mm 1 m/S 621 mmHg 48%
    14:00 +28°C° 0.2 mm 1 m/S 620 mmHg 50%
    15:00 +26°C° 0.5 mm 1 m/S 619 mmHg 57%
    16:00 +22°C° 0.5 mm 0 m/S 619 mmHg 65%
    17:00 +20°C° 0.5 mm 0 m/S 619 mmHg 72%
    18:00 +19°C° 1.9 mm 0 m/S 619 mmHg 79%
    19:00 +20°C° 1.9 mm 1 m/S 620 mmHg 86%
    20:00 +18°C° 1.9 mm 1 m/S 620 mmHg 92%
    21:00 +18°C° 0.9 mm 1 m/S 620 mmHg 92%
    22:00 +18°C° 0.9 mm 1 m/S 620 mmHg 93%
    23:00 +18°C° 0.9 mm 1 m/S 620 mmHg 93%

    27 Oktober, Samstag

    Zeit Temperatur Niederschläge Wind Luftdruck Luftfeuchtigkeit
    00:00 +16°C° 0.2 mm 1 m/S 620 mmHg 94%
    01:00 +16°C° 0.2 mm 1 m/S 619 mmHg 94%
    02:00 +16°C° 0.2 mm 1 m/S 619 mmHg 95%
    03:00 +14°C° 0 mm 0 m/S 619 mmHg 95%
    04:00 +14°C° 0 mm 0 m/S 619 mmHg 95%
    05:00 +14°C° 0 mm 0 m/S 619 mmHg 96%
    06:00 +18°C° 0.1 mm 1 m/S 620 mmHg 89%
    07:00 +20°C° 0.1 mm 1 m/S 621 mmHg 83%
    08:00 +22°C° 0.1 mm 1 m/S 622 mmHg 77%
    09:00 +23°C° 0.2 mm 1 m/S 622 mmHg 70%
    10:00 +25°C° 0.2 mm 1 m/S 622 mmHg 64%
    11:00 +26°C° 0.2 mm 2 m/S 621 mmHg 57%
    12:00 +26°C° 1 mm 1 m/S 621 mmHg 59%
    13:00 +26°C° 1 mm 1 m/S 620 mmHg 62%
    14:00 +26°C° 1 mm 1 m/S 619 mmHg 64%
    15:00 +22°C° 1.5 mm 0 m/S 619 mmHg 70%
    16:00 +20°C° 1.5 mm 0 m/S 619 mmHg 76%
    17:00 +19°C° 1.5 mm 0 m/S 618 mmHg 83%
    18:00 +18°C° 1.7 mm 0 m/S 619 mmHg 86%
    19:00 +17°C° 1.7 mm 0 m/S 619 mmHg 89%
    20:00 +16°C° 1.7 mm 0 m/S 619 mmHg 92%
    21:00 +16°C° 1 mm 0 m/S 619 mmHg 93%
    22:00 +16°C° 1 mm 1 m/S 619 mmHg 93%
    23:00 +16°C° 1 mm 1 m/S 619 mmHg 94%

    28 Oktober, Sonntag

    Zeit Temperatur Niederschläge Wind Luftdruck Luftfeuchtigkeit
    00:00 +15°C° 0.1 mm 0 m/S 619 mmHg 94%
    01:00 +14°C° 0.1 mm 0 m/S 618 mmHg 94%
    02:00 +14°C° 0.1 mm 0 m/S 618 mmHg 95%
    03:00 +14°C° 0 mm 0 m/S 618 mmHg 95%
    04:00 +13°C° 0 mm 0 m/S 618 mmHg 95%
    05:00 +14°C° 0 mm 1 m/S 619 mmHg 95%
    06:00 +16°C° 0 mm 1 m/S 620 mmHg 88%
    07:00 +20°C° 0 mm 1 m/S 621 mmHg 81%
    08:00 +22°C° 0 mm 1 m/S 622 mmHg 74%
    09:00 +23°C° 0.2 mm 1 m/S 622 mmHg 68%
    10:00 +25°C° 0.2 mm 1 m/S 621 mmHg 62%
    11:00 +26°C° 0.2 mm 2 m/S 621 mmHg 56%
    12:00 +26°C° 0.8 mm 1 m/S 621 mmHg 58%
    13:00 +26°C° 0.8 mm 1 m/S 620 mmHg 60%
    14:00 +26°C° 0.8 mm 1 m/S 619 mmHg 62%
    15:00 +24°C° 0.8 mm 1 m/S 619 mmHg 68%
    16:00 +21°C° 0.8 mm 0 m/S 619 mmHg 73%
    17:00 +19°C° 0.8 mm 0 m/S 618 mmHg 79%
    18:00 +18°C° 0.3 mm 0 m/S 619 mmHg 81%
    19:00 +17°C° 0.3 mm 0 m/S 619 mmHg 83%
    20:00 +16°C° 0.3 mm 0 m/S 619 mmHg 85%
    21:00 +15°C° 0.1 mm 0 m/S 619 mmHg 87%
    22:00 +15°C° 0.1 mm 0 m/S 619 mmHg 88%
    23:00 +15°C° 0.1 mm 0 m/S 619 mmHg 89%

    29 Oktober, Montag

    Zeit Temperatur Niederschläge Wind Luftdruck Luftfeuchtigkeit
    00:00 +14°C° 0 mm 0 m/S 619 mmHg 90%
    01:00 +14°C° 0 mm 0 m/S 618 mmHg 90%
    02:00 +13°C° 0 mm 0 m/S 618 mmHg 91%
    03:00 +13°C° 0 mm 0 m/S 618 mmHg 91%
    04:00 +13°C° 0 mm 0 m/S 618 mmHg 92%
    05:00 +13°C° 0 mm 0 m/S 618 mmHg 92%
    06:00 +15°C° 0 mm 0 m/S 620 mmHg 82%
    07:00 +20°C° 0 mm 1 m/S 621 mmHg 72%
    08:00 +23°C° 0 mm 1 m/S 622 mmHg 62%
    09:00 +25°C° 0 mm 1 m/S 622 mmHg 55%
    10:00 +27°C° 0 mm 1 m/S 622 mmHg 48%
    11:00 +29°C° 0 mm 1 m/S 622 mmHg 40%
    12:00 +28°C° 0 mm 1 m/S 621 mmHg 43%
    13:00 +27°C° 0 mm 1 m/S 620 mmHg 45%
    14:00 +27°C° 0 mm 1 m/S 619 mmHg 48%
    15:00 +25°C° 0 mm 1 m/S 619 mmHg 54%
    16:00 +24°C° 0 mm 1 m/S 619 mmHg 60%
    17:00 +22°C° 0 mm 1 m/S 618 mmHg 66%
    18:00 +19°C° 0 mm 0 m/S 619 mmHg 70%
    19:00 +17°C° 0 mm 0 m/S 619 mmHg 74%
    20:00 +16°C° 0 mm 0 m/S 619 mmHg 77%
    21:00 +16°C° 0 mm 0 m/S 619 mmHg 79%
    22:00 +15°C° 0 mm 0 m/S 619 mmHg 81%
    23:00 +15°C° 0 mm 0 m/S 619 mmHg 82%

    30 Oktober, Dienstag

    Zeit Temperatur Niederschläge Wind Luftdruck Luftfeuchtigkeit
    00:00 +15°C° 0 mm 0 m/S 618 mmHg 83%
    01:00 +14°C° 0 mm 0 m/S 618 mmHg 84%
    02:00 +14°C° 0 mm 0 m/S 618 mmHg 84%
    03:00 +14°C° 0 mm 0 m/S 618 mmHg 86%
    04:00 +13°C° 0 mm 0 m/S 618 mmHg 87%
    05:00 +14°C° 0 mm 1 m/S 618 mmHg 88%
    06:00 +18°C° 0 mm 1 m/S 619 mmHg 78%
    07:00 +21°C° 0 mm 1 m/S 620 mmHg 67%
    08:00 +24°C° 0 mm 1 m/S 621 mmHg 56%
    09:00 +26°C° 0 mm 1 m/S 621 mmHg 50%
    10:00 +27°C° 0 mm 1 m/S 621 mmHg 44%
    11:00 +29°C° 0 mm 1 m/S 621 mmHg 38%
    12:00 +29°C° 0 mm 1 m/S 621 mmHg 38%
    13:00 +29°C° 0 mm 1 m/S 620 mmHg 37%
    14:00 +30°C° 0 mm 1 m/S 619 mmHg 36%
    15:00 +25°C° 0 mm 0 m/S 619 mmHg 44%
    16:00 +23°C° 0 mm 0 m/S 618 mmHg 51%
    17:00 +21°C° 0 mm 0 m/S 618 mmHg 58%
    18:00 +19°C° 0 mm 0 m/S 618 mmHg 61%
    19:00 +18°C° 0 mm 0 m/S 618 mmHg 65%
    20:00 +19°C° 0 mm 1 m/S 618 mmHg 69%
    21:00 +16°C° 0 mm 0 m/S 618 mmHg 71%
    22:00 +16°C° 0 mm 0 m/S 618 mmHg 74%
    23:00 +15°C° 0 mm 0 m/S 618 mmHg 77%
    Mehr zeigen